ONEWEB-0218 (48214 NORAD) Tracking and Keplerian Element Data

This shows tracking and keplerian element data for the satellite.

Feedback or suggestion? Click here.




ElementValue
Catalog48214
NameONEWEB-0218
Epoch Orbit182
Epoch Day136.75001157
Epoch Year2021
RAAN305.7367
Inclination87.4168
Eccentricity0.0011264
Argument of Perigee163.1804
Mean Anonmoly227.3754
Mean Motion15.38516213
Decay Rate-0.01337298
L11 48214U 21031E 21136.75001157 -.01337298 00000-0 -39085-1 0 9996
L22 48214 87.4168 305.7367 0011264 163.1804 227.3754 15.38516213 1829

Live tracking and technical data element details for ONEWEB-0218 (NORAD 48214). ONEWEB-0218 can be tracked NOW for your location showing map with azimuth and elevation plus other details from your city location.

Track the satellite on the map from your city or location and see movement details for azimuth, elevation, latitude, longitude, range, height, and movement on the map or in text.







IsCatalogInMostPopularTable: catalog: 48214, numindb: 6
Update: records affected: 1



GetName: 48214 ONEWEB-0218

Hit Count: updated at: Mon, 17 May 2021 16:25:19 GMT